Weather Roundup
Issued by NWS Springfield, MO

Home | Current Version | Previous Version | Text Only | Print | Product List | Glossary On
Versions: 1 2 3 4 5 6 7 8 9 10 11 12 13 14 15 16 17 18 19 20 21 22 23 24 25 26 27 28 29 30 31 32 33 34 35 36 37 38 39 40 41 42 43 44 45 46 47 48 49 50
000
NZUS99 KSGF 201407
HRRSGF

HOURLY WEATHER
NATIONAL WEATHER SERVICE SPRINGFIELD MO
800 AM CST MON FEB 20 2017

......SGF CWA......

CITY           SKY/WX    TMP DP  RH WIND       PRES   REMARKS
SPRINGFIELD    PTSUNNY   60  53  77 SE21      29.92R
JOPLIN         CLOUDY    61  61 100 S7        29.90R
WEST PLAINS    CLOUDY    59  52  77 SE9       30.03S
ROLLA          SUNNY     61  52  72 SE17G25   29.97F
OSAGE BEACH    CLOUDY    63  53  70 S8        29.95R
BRANSON        PTSUNNY   59  54  82 SE13      29.97R

......SURROUNDING SGF CWA......

CITY           SKY/WX    TMP DP  RH WIND       PRES   REMARKS
CHANUTE        MOCLDY    60  58  92 S9        29.83F
PARSONS        CLOUDY    60  58  92 S6        29.85S FOG
COFFEYVILLE    LGT RAIN  59  58  96 SE10      29.84F
EMPORIA        CLOUDY    58  58 100 S17       29.78S
GROVE OK       CLOUDY    61  61 100 S6        29.91S
ROGERS AR      LGT RAIN  60  59  96 SW9       29.95R FOG
SILOAM SPRINGS CLOUDY    61  57  88 SW9       29.94R
HARRISON AR    CLOUDY    63  56  78 SE20      29.96R
NEAR YELLVILLE CLOUDY    57  48  72 E5        29.98R

......KANSAS AND MISSOURI......

CITY           SKY/WX    TMP DP  RH WIND       PRES   REMARKS
KANSAS CTY INT LGT RAIN  61  55  81 S15       29.83R
DOWNTOWN KC    LGT RAIN  62  55  77 S13G21    29.83R
COLUMBIA       CLOUDY    62  54  74 SE20      29.93F
SEDALIA        MOSUNNY   64  54  69 S14G23    29.90R
ST JOSEPH      CLOUDY    63  56  78 S14       29.81S
ST LOUIS       PTSUNNY   56  51  84 SE10      30.06R HAZE
SPIRIT OF STL  CLOUDY    55  53  93 E5        30.04R FOG
KIRKSVILLE     CLOUDY    57  54  89 SE12      29.93S
WICHITA        CLOUDY    56  55  97 S13       29.80R
TOPEKA         LGT RAIN  60  56  86 SE8       29.79R
OLATHE         LGT RAIN  58  56  93 S16       29.83S

......TENNESSEE......

CITY           SKY/WX    TMP DP  RH WIND       PRES   REMARKS
MEMPHIS        PTSUNNY   62  51  67 S10       30.08R
NASHVILLE      CLOUDY    50  47  89 CALM      30.18S FOG

......ARKANSAS.......

CITY           SKY/WX    TMP DP  RH WIND       PRES   REMARKS
FAYETTEVILLE   LGT RAIN  60  60 100 S14G21    29.95R FOG
FT SMITH       CLOUDY    62  58  86 SW7       29.96R
LITTLE ROCK    CLOUDY    57  57 100 CALM      30.04R

......OKLAHOMA.......

CITY           SKY/WX    TMP DP  RH WIND       PRES   REMARKS
TULSA          MOCLDY    60  59  96 SE10      29.81F
PONCA CITY     CLOUDY    57  54  89 SW8       29.81R
MCALESTER      CLOUDY    58  54  86 SE9       29.89F
OKLAHOMA CITY  CLOUDY    54  53  97 S6        29.84S

......IOWA............

CITY           SKY/WX    TMP DP  RH WIND       PRES   REMARKS
DES MOINES     LGT RAIN  59  55  87 S14       29.84S
QUAD CITIES    FOG       52  49  89 SE9       30.01R VSB 1

......ILLINOIS........

CITY           SKY/WX    TMP DP  RH WIND       PRES   REMARKS
QUINCY         CLOUDY    53  51  93 SE14      29.98R FOG
CHICAGO        PTSUNNY   49  45  86 SE8       30.13S FOG



USA.gov is the U.S. government's official web portal to all federal, state and local government web resources and services.